Volver al catálogo

STARLINK-31000

ActivoComunicacionesVLEO
NORAD 58488·PAYLOAD·🇺🇸 United States

Lanzado Dec 3, 2023 desde Cape Canaveral Space Force Station

Loading…

Próximos Pases (próximas 24 horas)

TLE

ActualizadoSource: CelesTrak SupGP

Época: Sep 14, 2026, 22:14 UTC

1 58488C 23186R   26257.92687500  .00034977  00000+0  12668-2 0  2573
2 58488  43.0018  74.9438 0001624 274.9053 222.7586 15.27562348    15

Sigue STARLINK-31000 en tiempo real con AllMySat

Download on the App Store